Wind_Speed
17 18 19 19 20 20 19 20 19 20 20 22 23 23 23 24 24 15 5 6 4 9 8 13 8 8 9 4 6 3 3 2 4 3 6 6 3 7 2 8 4 8 7 16 30
18 19 19 21 21 22 20 21 20 20 21 22 22 22 22 25 20 13 12 8 6 12 9 10 5 9 3 4 3 4 3 9 8 7 6 1 7 7 5 5 3 5 16 32 33
18 19 20 21 22 22 21 22 21 21 21 22 22 22 22 19 4 6 5 15 9 10 7 5 5 5 4 4 4 4 5 7 9 16 16 5 6 7 10 4 6 20 18 22 26
20 21 21 22 23 24 23 23 23 22 22 22 22 21 21 6 1 3 4 8 12 9 6 3 1 2 3 4 2 4 9 5 7 9 6 8 4 3 4 5 14 22 23 20 18
21 22 23 24 25 26 24 25 23 21 21 21 21 18 9 5 7 7 4 6 9 9 6 3 2 3 2 4 7 1 5 9 12 8 9 8 4 5 3 4 15 16 20 17 16
22 23 23 25 27 27 27 26 24 23 22 20 18 13 3 4 4 9 8 8 9 10 4 6 5 4 5 4 1 5 8 12 5 3 3 6 4 3 3 14 15 16 16 14 16
22 23 24 26 27 28 29 28 25 24 23 19 13 7 0 13 2 6 9 12 10 11 5 10 4 2 2 4 3 5 7 8 4 6 5 4 3 6 6 16 18 17 11 12 11
22 23 25 26 28 29 30 29 27 27 23 14 6 1 7 7 9 13 13 19 16 14 18 20 7 4 4 2 8 6 4 6 3 3 4 8 7 8 12 18 17 14 12 10 11
23 24 25 27 27 29 31 29 29 22 13 3 3 3 9 11 9 10 15 16 10 10 13 16 4 3 6 3 5 6 4 4 10 3 4 5 5 2 16 18 17 15 12 11 11
24 25 25 27 27 29 30 30 12 4 5 4 1 1 6 2 7 15 13 16 6 4 7 2 5 3 4 5 4 4 4 4 6 5 5 6 6 7 17 18 19 16 11 12 13
25 26 26 26 26 27 29 10 6 4 1 5 4 5 5 9 14 7 9 8 3 2 4 4 4 4 11 8 4 3 6 7 16 10 6 5 6 7 11 13 14 15 11 11 10
24 26 28 26 24 24 13 3 5 6 8 10 12 9 24 4 5 10 2 3 3 4 2 5 5 9 5 5 5 6 8 13 11 13 0 3 2 2 2 8 14 16 11 11 8
24 25 28 26 23 7 12 6 18 13 3 8 6 7 6 14 10 12 7 2 4 3 3 6 9 4 4 7 5 5 6 12 12 4 4 3 5 4 2 5 5 5 5 6 11
25 25 26 29 5 14 8 15 22 2 4 8 5 9 6 8 6 10 14 8 2 9 6 6 6 7 5 7 6 6 11 9 5 4 3 3 5 4 5 6 2 10 8 8 8
25 24 24 23 17 7 8 21 13 4 3 5 5 1 3 10 7 5 7 5 9 6 6 10 4 3 5 8 5 10 4 7 2 3 2 3 4 6 4 6 3 6 8 8 6
26 25 25 12 13 14 14 18 2 5 7 7 3 2 5 3 5 1 4 5 4 5 3 9 3 4 7 6 5 3 5 6 4 3 2 3 4 5 3 6 9 19 21 19 3
27 25 27 20 5 3 20 4 4 4 5 6 3 3 2 3 2 5 5 5 6 3 5 5 6 4 4 5 3 7 7 4 4 5 5 3 1 5 8 4 20 23 25 26 17
30 28 20 21 14 4 5 5 4 5 7 6 5 6 2 2 4 4 4 4 4 4 3 5 8 4 4 5 4 1 7 6 4 3 5 2 3 4 3 10 18 20 18 20 22
30 14 11 15 13 11 5 3 8 7 3 6 8 5 7 6 4 2 6 6 8 10 9 6 7 5 6 4 6 2 3 6 7 3 3 2 4 3 2 6 10 11 12 5 10
19 9 8 7 13 12 4 5 4 5 5 5 2 3 6 6 6 5 5 3 5 9 2 7 3 6 5 2 1 5 6 3 3 3 3 4 3 5 10 12 10 9 9 7 4
7 4 2 13 15 5 4 6 5 10 2 2 2 3 5 4 2 3 4 2 2 5 8 6 4 9 3 4 5 2 1 6 6 4 6 2 6 6 15 10 10 9 11 10 8
6 2 2 23 4 1 4 6 5 6 3 5 4 8 7 6 2 2 1 1 8 3 4 5 6 7 11 5 3 3 4 6 5 5 1 4 5 3 7 6 7 9 13 4 5
3 3 9 5 3 2 4 4 6 5 8 5 4 4 2 6 3 3 3 3 8 7 1 4 1 2 10 6 4 1 2 5 5 3 5 5 5 1 1 6 9 12 9 4 2
2 2 3 3 1 5 0 5 5 6 8 6 7 3 2 1 4 1 4 2 7 6 4 7 3 5 7 7 2 5 3 4 5 3 4 5 3 6 9 12 16 15 6 3 5
1 3 2 2 5 4 4 3 4 5 4 7 4 7 6 4 1 3 2 5 5 8 6 4 3 2 4 3 3 2 4 6 4 5 5 5 9 9 18 21 19 10 5 5 6
1 1 3 3 3 3 5 4 8 10 6 3 3 3 4 5 6 3 2 0 3 6 5 5 1 4 1 1 3 3 4 2 5 4 3 5 7 7 5 4 6 9 6 5 5
3 3 2 3 4 2 3 4 6 4 2 1 1 5 6 5 6 5 6 3 4 1 1 3 3 3 4 4 1 3 2 2 2 2 7 5 9 3 5 11 14 10 8 8 6
Wind_Direction
353 352 351 351 350 346 344 344 346 347 345 343 340 341 334 328 324 318 245 231 185 180 152 157 197 190 189 239 211 146 58 272 266 238 256 147 154 151 147 136 195 187 151 152 147
349 347 346 347 345 344 341 342 340 341 340 341 339 340 332 329 323 288 259 210 211 179 167 173 186 179 221 220 216 135 141 219 215 221 241 128 175 158 116 159 28 89 109 135 141
346 343 342 343 342 339 337 337 336 337 335 334 338 339 330 331 329 254 332 205 196 198 214 215 227 193 223 211 188 169 210 214 239 236 237 161 231 151 130 194 203 152 142 148 150
344 342 339 339 338 335 332 331 331 332 329 331 334 337 329 340 252 320 350 185 201 214 239 247 204 217 236 293 275 267 247 219 241 218 214 207 155 94 143 233 160 161 151 152 151
345 340 337 336 335 332 328 326 326 325 324 324 329 336 337 356 255 297 267 190 198 215 225 228 184 215 297 300 327 226 297 301 303 290 207 145 146 125 131 165 153 161 150 153 166
344 341 336 334 334 329 324 322 320 319 317 319 321 330 2 304 297 306 238 217 213 206 229 197 217 187 267 259 304 290 289 296 297 58 111 175 91 81 202 146 153 170 172 150 165
342 340 335 333 331 326 321 318 316 313 311 312 308 323 138 237 205 341 244 241 238 209 206 230 196 158 243 303 279 282 333 331 290 162 188 107 6 185 181 153 173 173 187 150 161
342 338 334 331 329 323 318 315 315 311 306 301 281 242 248 261 283 263 249 253 254 250 244 265 249 236 218 283 359 345 44 358 179 193 228 132 249 174 164 162 189 180 183 158 166
341 337 332 330 326 323 318 317 315 309 304 255 176 151 266 307 266 264 238 227 249 267 253 260 177 193 21 61 7 12 267 308 314 204 158 212 229 231 173 181 188 191 178 169 159
339 336 331 329 328 324 320 322 318 6 83 99 139 354 275 303 326 316 263 229 243 310 351 90 53 71 37 64 238 265 313 286 254 296 281 238 288 117 182 183 193 190 158 178 168
337 334 331 328 327 325 328 341 10 358 11 229 207 261 283 304 307 292 328 171 177 100 254 355 69 222 242 210 188 284 285 280 283 272 285 357 355 340 180 186 193 191 169 184 178
335 332 330 326 326 322 325 27 73 329 300 255 247 249 260 270 303 288 48 164 138 228 133 9 243 239 224 227 196 215 263 274 287 282 301 36 280 356 138 216 198 185 172 182 158
334 332 330 326 323 320 320 284 328 344 229 291 225 226 217 161 210 250 148 188 173 206 212 188 245 334 221 273 242 227 205 262 234 350 314 336 311 347 85 334 158 174 199 176 177
333 331 330 330 319 329 288 326 332 145 42 273 244 260 189 151 270 198 203 158 139 213 178 234 267 234 290 255 178 248 212 235 232 62 259 51 277 324 334 325 107 175 160 164 151
329 329 327 331 307 293 321 329 340 117 326 250 243 244 199 164 194 238 178 109 194 211 124 243 269 301 278 246 157 235 183 205 263 162 103 326 67 272 6 297 236 53 51 50 112
326 324 321 319 297 277 322 330 47 50 246 306 266 221 130 236 195 79 136 78 158 202 227 240 230 190 225 273 215 324 103 58 61 117 53 255 132 285 349 322 60 70 58 24 58
322 317 309 289 256 288 325 11 55 163 319 290 351 349 159 307 290 165 147 140 169 142 275 311 267 251 210 285 7 64 53 351 346 1 214 196 21 69 294 86 110 108 101 102 266
319 313 292 266 262 260 343 56 183 221 257 304 321 329 311 177 234 207 145 220 208 112 125 178 303 195 173 180 238 146 144 154 211 224 267 248 5 312 354 107 122 132 151 170 213
322 311 277 271 235 211 83 126 202 215 280 350 336 48 342 347 230 162 186 223 202 171 175 164 267 260 235 194 137 254 207 188 107 17 54 223 105 44 294 148 163 180 184 162 169
326 309 266 231 169 146 83 221 241 211 7 0 339 29 357 322 12 24 180 297 274 202 170 215 288 207 280 173 203 165 159 85 14 146 225 290 190 202 215 197 208 187 207 208 188
327 350 329 152 137 56 163 227 259 283 168 334 308 313 252 267 269 314 283 137 283 286 162 137 122 262 120 197 208 12 248 51 118 125 163 195 258 215 207 210 212 221 229 208 198
341 322 174 159 77 85 162 195 239 274 71 251 229 215 218 219 242 296 288 263 322 263 143 220 157 240 220 278 287 199 184 147 134 245 9 153 264 258 192 245 258 245 238 232 211
341 270 175 297 139 241 267 257 235 244 256 235 236 217 262 203 209 208 328 298 351 40 54 178 329 280 323 352 2 229 159 101 105 80 187 136 260 118 198 232 237 242 252 274 108
344 350 326 58 332 141 186 271 250 246 239 190 230 182 208 105 355 262 341 323 328 355 60 90 117 153 202 220 186 150 132 120 123 109 174 218 236 237 215 223 238 246 252 265 215
138 260 200 257 264 236 175 279 297 317 248 176 220 206 174 151 9 126 358 326 327 349 20 79 74 238 218 260 310 256 150 159 162 171 154 235 199 228 212 210 217 230 234 235 236
262 333 345 302 298 277 179 233 240 254 229 296 197 67 149 141 172 188 156 194 266 335 31 357 7 358 7 37 293 267 298 112 119 139 115 154 251 228 224 183 230 238 237 233 259
304 312 93 281 322 36 208 260 261 327 294 181 299 104 98 176 186 214 200 191 191 224 64 70 104 55 278 331 310 352 277 18 90 129 139 167 230 200 202 206 218 216 205 232 231
Height
823 820 817 814 812 810 807 804 801 798 795 792 788 784 780 775 771 769 769 767 767 768 771 773 776 778 780 778 775 774 805 814 801 797 778 759 762 756 755 766 765 763 764 765 778
822 820 817 814 811 808 806 803 801 798 795 791 788 784 779 775 770 765 762 764 766 767 770 771 774 776 781 777 774 784 810 800 776 771 768 761 757 756 765 771 773 768 766 771 778
823 820 817 814 811 807 804 801 799 796 793 790 787 784 779 774 772 761 759 761 764 766 767 769 770 771 779 769 771 780 794 771 765 755 752 761 756 750 766 779 768 769 772 773 777
822 820 816 813 810 806 803 801 798 795 792 788 785 783 778 775 791 758 758 760 763 765 766 765 767 773 778 779 764 780 762 757 752 746 752 757 748 760 762 759 753 754 759 771 775
823 819 816 813 809 806 802 798 796 794 791 788 785 782 779 779 770 759 759 760 762 764 764 765 769 772 781 773 769 770 759 748 743 738 743 742 754 761 760 753 755 759 762 771 774
822 819 816 812 808 804 800 796 793 791 788 786 784 782 782 789 759 758 758 760 761 762 762 764 764 765 772 770 772 761 758 755 743 745 742 749 762 756 756 753 757 761 763 772 775
821 817 814 810 806 802 797 793 791 788 785 784 783 781 782 771 758 758 759 758 759 759 761 758 759 764 764 771 759 759 772 762 748 746 750 743 765 769 754 754 755 760 766 774 779
819 816 812 808 804 799 794 791 787 783 781 780 780 781 780 757 757 755 756 756 758 759 758 755 757 761 762 757 767 772 776 792 758 753 746 750 781 756 753 753 757 762 765 777 781
818 814 810 807 802 796 791 787 782 778 776 777 779 780 776 755 754 751 753 754 755 755 755 754 755 765 766 784 800 796 806 793 778 750 750 760 767 750 748 751 755 757 764 775 783
816 812 809 805 800 794 788 783 778 776 776 778 779 785 761 757 752 751 750 751 755 754 756 757 769 782 793 803 826 807 800 793 793 763 757 763 754 761 750 748 750 753 764 772 781
816 811 807 803 799 794 787 781 781 782 776 776 773 772 760 754 753 748 750 749 752 758 779 771 790 800 790 789 786 787 795 800 772 756 762 760 764 754 752 750 752 752 763 769 774
815 811 806 802 797 793 791 791 794 800 794 766 763 762 754 757 764 747 748 757 761 779 772 787 799 777 774 777 786 791 797 794 774 753 758 764 766 758 756 751 745 749 761 765 772
814 809 805 799 794 792 792 791 791 789 795 769 758 754 747 751 758 752 747 753 764 775 777 793 777 765 773 778 787 791 795 784 785 765 758 763 777 768 762 758 748 752 757 764 768
813 808 804 797 796 792 789 788 786 784 815 783 763 746 739 740 752 736 738 750 764 777 780 782 763 768 774 780 777 798 767 765 770 781 804 773 817 782 777 769 760 758 764 770 775
811 807 804 801 797 793 789 785 782 784 839 760 751 731 732 743 734 736 730 743 767 768 774 781 767 770 776 770 762 775 755 764 763 784 790 786 807 789 779 769 767 773 777 784 784
809 806 801 799 795 788 787 783 782 821 834 772 744 745 748 740 738 732 735 734 743 762 764 768 753 757 762 750 750 747 762 781 794 804 822 792 803 801 789 787 783 782 787 795 792
803 801 798 795 790 787 787 784 822 835 781 772 761 750 754 755 747 743 751 762 778 790 792 772 766 753 746 760 753 767 794 830 822 833 829 797 800 807 788 774 774 784 784 771 782
797 793 789 786 786 788 788 804 827 800 792 764 760 755 757 748 748 748 757 772 761 769 796 799 803 760 743 754 763 765 787 830 828 838 823 795 805 813 784 773 774 774 766 758 754
792 786 782 776 779 786 796 823 815 799 774 774 766 771 773 761 759 754 763 768 759 761 786 802 793 749 743 742 749 766 788 778 819 822 825 815 806 793 787 782 776 770 763 760 760
791 784 777 774 776 784 803 813 800 782 772 772 783 773 784 773 769 766 764 752 753 749 745 764 787 754 742 737 742 755 760 794 814 825 826 818 804 810 796 783 771 770 764 760 762
791 789 774 774 778 790 810 809 790 769 769 778 779 782 777 774 768 769 765 749 742 741 746 762 775 761 747 758 763 768 776 787 799 812 828 833 821 783 776 772 771 768 760 756 757
794 793 774 778 793 803 804 794 776 773 768 773 774 778 779 770 766 766 765 753 739 740 753 752 774 787 772 748 743 748 757 774 807 807 819 817 809 771 769 773 772 763 753 754 756
802 794 779 780 799 800 792 782 775 774 773 772 770 763 759 768 772 765 759 742 741 743 749 750 781 794 785 769 750 753 752 772 789 799 811 815 806 772 768 770 768 765 757 756 757
804 795 786 783 788 786 785 785 780 760 764 764 764 759 765 767 766 765 764 748 743 741 743 747 780 780 801 781 759 761 754 760 777 800 804 800 781 776 774 772 763 759 761 760 760
804 795 790 794 787 785 784 781 781 778 756 756 761 761 762 773 770 772 767 761 747 747 745 754 774 766 763 757 754 752 752 759 764 771 781 774 782 765 754 754 751 754 754 757 758
801 798 789 789 786 784 788 781 776 768 767 759 759 754 758 768 766 770 765 765 761 753 756 762 777 772 765 757 756 755 746 745 751 763 764 775 775 752 748 752 757 753 754 756 757
799 795 795 790 787 785 785 775 769 763 753 748 751 758 763 759 754 753 753 753 754 757 763 769 779 786 785 772 764 779 751 745 746 749 766 781 758 749 751 748 747 749 752 756 753